WMT7ET LROP-LRTR

Flight info

Callsign WMT7ET
Flight time 0h 37m
Altitude 32000
Route SOKRU DCT ENIMA DCT NEKUL
Aircraft A320/M-SDE3FGHIRWY/LB1

Departure

Time 2026-04-15 13:07
Airport Bucharest Henri Coandă International Airport (LROP)

Arrival

Time 2026-04-15 13:44
Airport Timișoara Traian Vuia International Airport (LRTR)
Time Latitude Longitude Altitude Speed Heading
2026-04-15 12:32 44.56879 26.08669 317 ft 0 kts 174°
2026-04-15 12:46 44.56878 26.08669 317 ft 1 kts 174°
2026-04-15 12:46 44.56854 26.08673 317 ft 5 kts 174°
2026-04-15 12:46 44.56835 26.08670 317 ft 2 kts 209°
2026-04-15 12:47 44.56827 26.08652 316 ft 3 kts 247°
2026-04-15 12:47 44.56823 26.08614 317 ft 5 kts 262°
2026-04-15 12:47 44.56831 26.08566 317 ft 6 kts 315°
2026-04-15 12:47 44.56872 26.08556 318 ft 7 kts 353°
2026-04-15 12:48 44.56924 26.08548 318 ft 8 kts 353°
2026-04-15 12:48 44.56991 26.08537 316 ft 11 kts 353°
2026-04-15 12:48 44.57079 26.08523 314 ft 14 kts 354°
2026-04-15 12:48 44.57183 26.08508 315 ft 16 kts 354°
2026-04-15 12:49 44.57292 26.08491 319 ft 16 kts 355°
2026-04-15 12:49 44.57402 26.08478 320 ft 16 kts 355°
2026-04-15 12:49 44.57516 26.08461 324 ft 16 kts 355°
2026-04-15 12:49 44.57563 26.08454 323 ft 3 kts 354°
2026-04-15 12:50 44.57580 26.08451 325 ft 2 kts 354°
2026-04-15 12:50 44.57594 26.08449 325 ft 2 kts 353°
2026-04-15 12:50 44.57625 26.08444 324 ft 6 kts 353°
2026-04-15 12:50 44.57663 26.08459 328 ft 6 kts 52°
2026-04-15 12:51 44.57671 26.08531 326 ft 17 kts 83°
2026-04-15 12:51 44.57711 26.09045 319 ft 85 kts 84°
2026-04-15 12:51 44.57781 26.09937 322 ft 66 kts 84°
2026-04-15 12:51 44.57792 26.10075 322 ft 0 kts 85°
2026-04-15 12:52 44.57792 26.10082 322 ft 2 kts 85°
2026-04-15 12:52 44.57795 26.10117 323 ft 5 kts 85°
2026-04-15 12:52 44.57798 26.10177 323 ft 7 kts 85°
2026-04-15 12:53 44.57804 26.10261 325 ft 10 kts 85°
2026-04-15 12:53 44.57812 26.10388 322 ft 16 kts 84°
2026-04-15 12:53 44.57826 26.10578 318 ft 22 kts 83°
2026-04-15 12:53 44.57835 26.10777 317 ft 18 kts 96°
2026-04-15 12:54 44.57813 26.10964 312 ft 21 kts 109°
2026-04-15 12:54 44.57763 26.11121 311 ft 15 kts 118°
2026-04-15 12:54 44.57712 26.11151 312 ft 10 kts 203°
2026-04-15 12:54 44.57689 26.11053 313 ft 12 kts 263°
2026-04-15 12:55 44.57678 26.10919 314 ft 16 kts 264°
2026-04-15 12:55 44.57665 26.10744 314 ft 20 kts 264°
2026-04-15 12:55 44.57649 26.10553 320 ft 20 kts 263°
2026-04-15 12:55 44.57635 26.10345 321 ft 24 kts 265°
2026-04-15 12:56 44.57623 26.10185 321 ft 14 kts 264°
2026-04-15 12:56 44.57612 26.10038 323 ft 17 kts 263°
2026-04-15 12:56 44.57599 26.09869 320 ft 13 kts 258°
2026-04-15 12:56 44.57513 26.09837 320 ft 16 kts 172°
2026-04-15 12:57 44.57386 26.09856 315 ft 21 kts 175°
2026-04-15 12:57 44.57224 26.09877 313 ft 21 kts 174°
2026-04-15 12:57 44.57122 26.09894 312 ft 14 kts 173°
2026-04-15 12:57 44.57087 26.09900 311 ft 0 kts 173°
2026-04-15 13:01 44.57059 26.09905 313 ft 9 kts 176°
2026-04-15 13:02 44.57015 26.09826 314 ft 12 kts 262°
2026-04-15 13:02 44.57006 26.09707 314 ft 12 kts 264°
2026-04-15 13:02 44.56997 26.09586 317 ft 12 kts 264°
2026-04-15 13:02 44.56988 26.09463 317 ft 13 kts 264°
2026-04-15 13:03 44.56977 26.09324 315 ft 15 kts 264°
2026-04-15 13:03 44.56967 26.09167 318 ft 16 kts 264°
2026-04-15 13:03 44.56953 26.09004 319 ft 18 kts 263°
2026-04-15 13:03 44.56939 26.08820 316 ft 20 kts 264°
2026-04-15 13:04 44.56924 26.08628 317 ft 14 kts 268°
2026-04-15 13:04 44.56988 26.08537 317 ft 15 kts 344°
2026-04-15 13:04 44.57105 26.08524 315 ft 18 kts 355°
2026-04-15 13:04 44.57234 26.08500 318 ft 19 kts 353°
2026-04-15 13:05 44.57364 26.08481 321 ft 19 kts 354°
2026-04-15 13:05 44.57498 26.08463 324 ft 19 kts 355°
2026-04-15 13:05 44.57555 26.08454 323 ft 0 kts 353°
2026-04-15 13:06 44.57589 26.08449 325 ft 13 kts 354°
2026-04-15 13:06 44.57671 26.08502 325 ft 12 kts 72°
2026-04-15 13:06 44.57681 26.08636 326 ft 16 kts 86°
2026-04-15 13:06 44.57711 26.09034 319 ft 74 kts 84°
2026-04-15 13:07 44.57785 26.10018 322 ft 126 kts 83°
2026-04-15 13:07 44.57886 26.11410 492 ft 149 kts 83°
2026-04-15 13:07 44.57991 26.12873 1030 ft 153 kts 85°
2026-04-15 13:07 44.58104 26.14365 1598 ft 157 kts 85°
2026-04-15 13:08 44.58227 26.16005 1897 ft 181 kts 85°
2026-04-15 13:08 44.58368 26.17866 2238 ft 203 kts 85°
2026-04-15 13:08 44.58579 26.19915 2676 ft 222 kts 74°
2026-04-15 13:08 44.59542 26.21719 3075 ft 249 kts 32°
2026-04-15 13:09 44.61216 26.22544 3748 ft 262 kts
2026-04-15 13:09 44.63042 26.22303 4566 ft 269 kts 340°
2026-04-15 13:09 44.64591 26.20844 5436 ft 273 kts 311°
2026-04-15 13:09 44.65546 26.18562 6263 ft 278 kts 296°
2026-04-15 13:10 44.66388 26.16056 7090 ft 282 kts 295°
2026-04-15 13:10 44.67225 26.13546 7871 ft 286 kts 295°
2026-04-15 13:10 44.68064 26.11040 8669 ft 289 kts 295°
2026-04-15 13:10 44.68923 26.08479 9503 ft 291 kts 295°
2026-04-15 13:11 44.69791 26.05900 10264 ft 294 kts 295°
2026-04-15 13:11 44.70699 26.03201 10492 ft 317 kts 295°
2026-04-15 13:11 44.71668 26.00319 10826 ft 332 kts 295°
2026-04-15 13:11 44.72662 25.97361 11462 ft 336 kts 295°
2026-04-15 13:12 44.73665 25.94380 12173 ft 338 kts 295°
2026-04-15 13:12 44.74672 25.91381 12854 ft 340 kts 295°
2026-04-15 13:12 44.75686 25.88358 13540 ft 343 kts 295°
2026-04-15 13:12 44.76707 25.85307 14172 ft 346 kts 294°
2026-04-15 13:13 44.77736 25.82226 14754 ft 349 kts 294°
2026-04-15 13:13 44.78770 25.79132 15343 ft 351 kts 294°
2026-04-15 13:13 44.79813 25.76013 15930 ft 353 kts 294°
2026-04-15 13:13 44.80864 25.72871 16482 ft 356 kts 294°
2026-04-15 13:14 44.81922 25.69705 17060 ft 359 kts 294°
2026-04-15 13:14 44.82986 25.66514 17629 ft 361 kts 294°
2026-04-15 13:14 44.84056 25.63296 18207 ft 364 kts 294°
2026-04-15 13:14 44.85130 25.60053 18739 ft 367 kts 294°
2026-04-15 13:15 44.86210 25.56787 19247 ft 369 kts 294°
2026-04-15 13:15 44.87296 25.53501 19771 ft 371 kts 294°
2026-04-15 13:15 44.88386 25.50197 20300 ft 373 kts 294°
2026-04-15 13:15 44.89481 25.46871 20804 ft 375 kts 294°
2026-04-15 13:16 44.90581 25.43528 21292 ft 377 kts 294°
2026-04-15 13:16 44.91685 25.40164 21770 ft 379 kts 294°
2026-04-15 13:16 44.92796 25.36783 22235 ft 381 kts 294°
2026-04-15 13:16 44.93914 25.33383 22705 ft 383 kts 294°
2026-04-15 13:17 44.95035 25.29962 23184 ft 385 kts 294°
2026-04-15 13:17 44.96162 25.26521 23653 ft 387 kts 294°
2026-04-15 13:17 44.97297 25.23062 24067 ft 389 kts 294°
2026-04-15 13:17 44.98432 25.19585 24464 ft 391 kts 294°
2026-04-15 13:18 44.99568 25.16095 24848 ft 392 kts 294°
2026-04-15 13:18 45.00709 25.12585 25239 ft 394 kts 294°
2026-04-15 13:18 45.01854 25.09064 25615 ft 395 kts 294°
2026-04-15 13:18 45.03002 25.05526 26008 ft 397 kts 294°
2026-04-15 13:19 45.04137 25.02023 26384 ft 398 kts 293°
2026-04-15 13:19 45.05307 24.98410 26761 ft 400 kts 293°
2026-04-15 13:19 45.06449 24.94877 27132 ft 401 kts 293°
2026-04-15 13:19 45.08075 24.89547 27645 ft 403 kts 288°
2026-04-15 13:20 45.09614 24.81893 28352 ft 406 kts 285°
2026-04-15 13:20 45.11159 24.74172 29066 ft 410 kts 285°
2026-04-15 13:20 45.12719 24.66380 29777 ft 413 kts 284°
2026-04-15 13:20 45.14262 24.58547 30599 ft 411 kts 284°
2026-04-15 13:21 45.15789 24.50753 31387 ft 411 kts 284°
2026-04-15 13:21 45.17315 24.42950 32119 ft 411 kts 284°
2026-04-15 13:21 45.20364 24.27341 32170 ft 410 kts 284°
2026-04-15 13:22 45.23392 24.11710 32162 ft 412 kts 284°
2026-04-15 13:22 45.26397 23.96000 32152 ft 413 kts 284°
2026-04-15 13:23 45.29392 23.80270 32152 ft 413 kts 284°
2026-04-15 13:23 45.32361 23.64495 32150 ft 413 kts 284°
2026-04-15 13:24 45.35317 23.48691 32147 ft 413 kts 283°
2026-04-15 13:24 45.38255 23.32882 32144 ft 413 kts 283°
2026-04-15 13:25 45.41148 23.17153 32145 ft 414 kts 283°
2026-04-15 13:25 45.44038 23.01288 32144 ft 414 kts 283°
2026-04-15 13:26 45.46907 22.85405 32143 ft 414 kts 283°
2026-04-15 13:26 45.49293 22.72083 32138 ft 414 kts 283°
2026-04-15 13:27 45.53082 22.56636 32142 ft 419 kts 304°
2026-04-15 13:27 45.60925 22.44224 32142 ft 421 kts 309°
2026-04-15 13:28 45.68781 22.31785 32142 ft 421 kts 309°
2026-04-15 13:28 45.76648 22.19340 32144 ft 421 kts 309°
2026-04-15 13:29 45.83831 22.06233 32144 ft 416 kts 290°
2026-04-15 13:29 45.86892 21.94215 31873 ft 416 kts 289°
2026-04-15 13:30 45.87915 21.90249 30381 ft 434 kts 289°
2026-04-15 13:30 45.88982 21.86107 28834 ft 448 kts 289°
2026-04-15 13:30 45.90066 21.81868 27531 ft 455 kts 288°
2026-04-15 13:30 45.90617 21.77398 26358 ft 458 kts 269°
2026-04-15 13:31 45.90045 21.72901 25222 ft 463 kts 249°
2026-04-15 13:31 45.88371 21.68969 24349 ft 464 kts 229°
2026-04-15 13:31 45.85838 21.66149 23615 ft 463 kts 209°
2026-04-15 13:31 45.82783 21.64763 22699 ft 463 kts 188°
2026-04-15 13:32 45.79585 21.64994 21828 ft 461 kts 167°
2026-04-15 13:32 45.76662 21.66708 20581 ft 453 kts 147°
2026-04-15 13:32 45.74385 21.69733 19311 ft 445 kts 126°
2026-04-15 13:32 45.73085 21.73661 18071 ft 430 kts 101°
2026-04-15 13:33 45.73117 21.77802 15548 ft 416 kts 70°
2026-04-15 13:33 45.74659 21.81329 12845 ft 425 kts 44°
2026-04-15 13:33 45.76848 21.84005 11376 ft 397 kts 36°
2026-04-15 13:33 45.79146 21.86022 10057 ft 374 kts 32°
2026-04-15 13:34 45.80577 21.88808 8663 ft 346 kts 77°
2026-04-15 13:34 45.80522 21.92234 7322 ft 342 kts 109°
2026-04-15 13:34 45.79392 21.95106 6345 ft 333 kts 133°
2026-04-15 13:34 45.77461 21.96935 5009 ft 339 kts 161°
2026-04-15 13:35 45.75125 21.97220 3887 ft 339 kts 192°
2026-04-15 13:35 45.73079 21.95836 3455 ft 316 kts 220°
2026-04-15 13:35 45.71485 21.93851 3273 ft 292 kts 223°
2026-04-15 13:35 45.70021 21.92007 3143 ft 270 kts 223°
2026-04-15 13:36 45.68867 21.90088 3132 ft 242 kts 248°
2026-04-15 13:36 45.68393 21.87913 3139 ft 218 kts 258°
2026-04-15 13:36 45.68150 21.85858 3141 ft 206 kts 270°
2026-04-15 13:36 45.68329 21.83873 3158 ft 205 kts 285°
2026-04-15 13:37 45.68750 21.81941 3175 ft 203 kts 290°
2026-04-15 13:37 45.69226 21.80043 3156 ft 203 kts 291°
2026-04-15 13:37 45.69711 21.78151 3150 ft 202 kts 291°
2026-04-15 13:37 45.70186 21.76295 3140 ft 194 kts 291°
2026-04-15 13:38 45.70643 21.74514 3139 ft 189 kts 291°
2026-04-15 13:38 45.71093 21.72759 3148 ft 187 kts 291°
2026-04-15 13:38 45.71539 21.71014 3143 ft 187 kts 291°
2026-04-15 13:38 45.71985 21.69272 3149 ft 187 kts 291°
2026-04-15 13:39 45.72430 21.67527 3074 ft 186 kts 291°
2026-04-15 13:39 45.72875 21.65786 3020 ft 186 kts 291°
2026-04-15 13:39 45.73320 21.64042 3010 ft 187 kts 291°
2026-04-15 13:39 45.73765 21.62294 2997 ft 187 kts 291°
2026-04-15 13:40 45.74211 21.60544 3000 ft 187 kts 291°
2026-04-15 13:40 45.74656 21.58798 2996 ft 187 kts 291°
2026-04-15 13:40 45.75100 21.57049 2998 ft 187 kts 291°
2026-04-15 13:40 45.75546 21.55296 2988 ft 187 kts 291°
2026-04-15 13:41 45.75991 21.53543 2858 ft 186 kts 292°
2026-04-15 13:41 45.76433 21.51800 2642 ft 183 kts 291°
2026-04-15 13:41 45.76853 21.50141 2450 ft 174 kts 291°
2026-04-15 13:41 45.77261 21.48533 2195 ft 171 kts 291°
2026-04-15 13:42 45.77664 21.46940 1978 ft 170 kts 291°
2026-04-15 13:42 45.78065 21.45358 1735 ft 169 kts 291°
2026-04-15 13:42 45.78449 21.43840 1500 ft 154 kts 291°
2026-04-15 13:42 45.78801 21.42443 1276 ft 146 kts 292°
2026-04-15 13:43 45.79133 21.41120 1095 ft 142 kts 292°
2026-04-15 13:43 45.79475 21.39777 957 ft 144 kts 291°
2026-04-15 13:43 45.79812 21.38439 736 ft 142 kts 292°
2026-04-15 13:43 45.80147 21.37111 572 ft 141 kts 292°
2026-04-15 13:44 45.80480 21.35784 397 ft 141 kts 293°
2026-04-15 13:44 45.80793 21.34553 337 ft 111 kts 291°
2026-04-15 13:44 45.80954 21.33908 343 ft 36 kts 290°
2026-04-15 13:44 45.81011 21.33676 345 ft 17 kts 282°
2026-04-15 13:45 45.80945 21.33555 349 ft 18 kts 201°
2026-04-15 13:45 45.80862 21.33441 345 ft 18 kts 267°
2026-04-15 13:45 45.80903 21.33259 350 ft 20 kts 291°
2026-04-15 13:47 45.81082 21.32334 347 ft 0 kts 336°